EW3634 Weather Reports


Display with metric or nautical units.
time (UTC)temp
F
wind
direction
speed
MPH
gust
MPH
rain 1hr
in
rain 24hr
in
rain mn
in
humidity
%
barometer
mb
20200705222358 83 235 0.0 2.0 0.00 0.00 0.00 46 1012.2
20200705221853 83 238 1.0 6.0 0.00 0.00 0.00 44 1012.2
20200705221350 83 192 3.0 6.0 0.00 0.00 0.00 39 1012.3
20200705220848 83 277 1.0 4.0 0.00 0.00 0.00 43 1012.2
20200705220405 83 342 2.0 6.0 0.00 0.00 0.00 45 1012.2
20200705215905 83 26 2.0 6.0 0.00 0.00 0.00 43 1012.3
20200705215402 83 273 2.0 7.0 0.00 0.00 0.00 42 1012.3
20200705214858 83 274 2.0 7.0 0.00 0.00 0.00 48 1012.4
20200705214352 83 296 3.0 7.0 0.00 0.00 0.00 46 1012.4
20200705213901 83 259 1.0 5.0 0.00 0.00 0.00 48 1012.5
20200705213353 83 246 2.0 5.0 0.00 0.00 0.00 46 1012.5
20200705212911 84 57 1.0 5.0 0.00 0.00 0.00 46 1012.6
20200705212349 84 80 2.0 4.0 0.00 0.00 0.00 44 1012.6
20200705211846 85 5 1.0 9.0 0.00 0.00 0.00 45 1012.7
20200705211346 85 5 2.0 9.0 0.00 0.00 0.00 42 1012.6
20200705210904 85 120 2.0 8.0 0.00 0.00 0.00 43 1012.7
20200705210402 85 298 3.0 8.0 0.00 0.00 0.00 41 1012.6
20200705205855 85 329 1.0 6.0 0.00 0.00 0.00 43 1012.6
20200705205404 85 253 2.0 7.0 0.00 0.00 0.00 39 1012.7
20200705204857 85 188 1.0 6.0 0.00 0.00 0.00 41 1012.6
20200705204353 85 5 2.0 6.0 0.00 0.00 0.00 42 1012.7
20200705203353 85 306 2.0 10.0 0.00 0.00 0.00 45 1012.7
20200705202854 86 323 3.0 10.0 0.00 0.00 0.00 39 1012.8
20200705202400 86 331 3.0 11.0 0.00 0.00 0.00 39 1012.7
20200705201856 86 185 2.0 11.0 0.00 0.00 0.00 40 1012.8
20200705201350 86 17 2.0 6.0 0.00 0.00 0.00 41 1012.9
20200705200850 86 57 2.0 8.0 0.00 0.00 0.00 39 1012.9
20200705200411 86 304 2.0 8.0 0.00 0.00 0.00 39 1013.0
20200705195908 86 360 2.0 7.0 0.00 0.00 0.00 40 1012.9
20200705195346 86 330 2.0 8.0 0.00 0.00 0.00 42 1013.0
20200705194902 86 346 4.0 8.0 0.00 0.00 0.00 38 1013.0
20200705194402 87 316 3.0 8.0 0.00 0.00 0.00 38 1013.0
20200705193859 87 340 2.0 10.0 0.00 0.00 0.00 39 1013.1
20200705193347 87 302 4.0 10.0 0.00 0.00 0.00 37 1013.1
20200705192842 87 350 2.0 5.0 0.00 0.00 0.00 37 1013.0
20200705192419 87 136 2.0 6.0 0.00 0.00 0.00 39 1013.1
20200705191850 87 76 2.0 11.0 0.00 0.00 0.00 40 1013.1
20200705191345 87 186 3.0 6.0 0.00 0.00 0.00 41 1013.0
20200705190842 87 245 1.0 5.0 0.00 0.00 0.00 39 1013.0
20200705190346 88 333 2.0 5.0 0.00 0.00 0.00 37 1013.0
20200705185848 88 33 2.0 11.0 0.00 0.00 0.00 39 1013.0
20200705185355 87 293 3.0 11.0 0.00 0.00 0.00 39 1012.9
20200705184902 87 234 2.0 5.0 0.00 0.00 0.00 42 1013.0
20200705184358 87 101 3.0 8.0 0.00 0.00 0.00 44 1012.9
20200705183903 87 348 2.0 8.0 0.00 0.00 0.00 46 1013.0
20200705183358 87 5 3.0 8.0 0.00 0.00 0.00 50 1013.0
20200705182846 86 285 3.0 8.0 0.00 0.00 0.00 49 1012.9
20200705182342 86 316 2.0 6.0 0.00 0.00 0.00 51 1013.0
20200705181845 86 345 2.0 4.0 0.00 0.00 0.00 51 1013.0
20200705181359 86 306 2.0 5.0 0.00 0.00 0.00 51 1012.9
20200705180900 86 45 3.0 7.0 0.00 0.00 0.00 49 1012.9
20200705180402 86 349 2.0 7.0 0.00 0.00 0.00 48 1012.9
20200705175856 86 318 2.0 6.0 0.00 0.00 0.00 49 1013.0
20200705175351 86 140 3.0 6.0 0.00 0.00 0.00 46 1012.9
20200705174859 86 182 3.0 8.0 0.00 0.00 0.00 46 1013.0
20200705174349 86 274 1.0 6.0 0.00 0.00 0.00 46 1013.0
20200705173848 85 296 3.0 6.0 0.00 0.00 0.00 46 1013.0
20200705173347 85 301 3.0 8.0 0.00 0.00 0.00 47 1013.0
20200705172841 85 291 5.0 8.0 0.00 0.00 0.00 45 1013.0
20200705172403 85 22 3.0 5.0 0.00 0.00 0.00 46 1013.1
20200705171859 85 291 1.0 9.0 0.00 0.00 0.00 48 1013.2
20200705171359 85 275 3.0 9.0 0.00 0.00 0.00 50 1013.2
20200705170856 85 312 1.0 4.0 0.00 0.00 0.00 46 1013.3
20200705170345 85 222 2.0 5.0 0.00 0.00 0.00 48 1013.4
20200705165904 85 293 2.0 5.0 0.00 0.00 0.00 48 1013.4
20200705165400 84 256 1.0 3.0 0.00 0.00 0.00 51 1013.5
20200705164854 84 263 2.0 5.0 0.00 0.00 0.00 49 1013.5
20200705164356 84 232 2.0 8.0 0.00 0.00 0.00 50 1013.6
20200705163854 84 284 2.0 5.0 0.00 0.00 0.00 48 1013.6
20200705163351 84 5 1.0 5.0 0.00 0.00 0.00 50 1013.7
20200705162859 84 277 2.0 6.0 0.00 0.00 0.00 47 1013.7
20200705162359 84 228 3.0 6.0 0.00 0.00 0.00 44 1013.7
20200705161851 84 199 2.0 5.0 0.00 0.00 0.00 47 1013.7
20200705161352 84 252 2.0 5.0 0.00 0.00 0.00 50 1013.8
20200705160845 84 186 1.0 5.0 0.00 0.00 0.00 47 1013.8
20200705160400 84 61 3.0 5.0 0.00 0.00 0.00 47 1013.8
20200705155842 83 263 1.0 4.0 0.00 0.00 0.00 48 1013.8
20200705155401 83 315 2.0 5.0 0.00 0.00 0.00 50 1013.8
20200705154850 82 309 2.0 5.0 0.00 0.00 0.00 51 1013.8
20200705154403 82 275 2.0 5.0 0.00 0.00 0.00 51 1013.8
20200705153900 81 227 1.0 6.0 0.00 0.00 0.00 53 1013.9
20200705153402 81 239 2.0 6.0 0.00 0.00 0.00 53 1013.9
20200705152859 80 257 2.0 4.0 0.00 0.00 0.00 54 1013.9
20200705152359 80 288 2.0 4.0 0.00 0.00 0.00 52 1014.0
20200705151856 80 316 1.0 4.0 0.00 0.00 0.00 56 1013.9
20200705151346 80 306 1.0 4.0 0.00 0.00 0.00 55 1013.9
20200705150851 80 297 1.0 3.0 0.00 0.00 0.00 57 1013.8
20200705150342 79 302 1.0 3.0 0.00 0.00 0.00 56 1013.9
20200705145858 79 223 1.0 5.0 0.00 0.00 0.00 57 1014.0
20200705145350 78 219 1.0 5.0 0.00 0.00 0.00 59 1013.8
20200705144843 78 236 3.0 5.0 0.00 0.00 0.00 55 1013.8
20200705144341 78 294 3.0 5.0 0.00 0.00 0.00 56 1013.8
20200705143904 78 273 2.0 4.0 0.00 0.00 0.00 58 1013.9
20200705143400 78 157 1.0 4.0 0.00 0.00 0.00 61 1013.9
20200705142850 78 9 2.0 4.0 0.00 0.00 0.00 61 1013.9
20200705142401 78 351 1.0 6.0 0.00 0.00 0.00 61 1013.8
20200705141855 77 281 3.0 6.0 0.00 0.00 0.00 58 1013.8
20200705141409 77 30 1.0 3.0 0.00 0.00 0.00 62 1013.8
20200705140845 76 281 1.0 4.0 0.00 0.00 0.00 61 1013.8
20200705140406 76 268 2.0 4.0 0.00 0.00 0.00 60 1013.7
20200705135905 76 315 0.0 2.0 0.00 0.00 0.00 62 1013.7
20200705135355 76 240 1.0 3.0 0.00 0.00 0.00 62 1013.7
20200705134850 76 219 1.0 3.0 0.00 0.00 0.00 67 1013.7
20200705134403 76 298 1.0 3.0 0.00 0.00 0.00 64 1013.8
20200705133852 75 298 1.0 3.0 0.00 0.00 0.00 62 1013.8
20200705133349 75 55 1.0 2.0 0.00 0.00 0.00 64 1013.9
20200705132906 74 360 0.0 2.0 0.00 0.00 0.00 68 1014.0
20200705132353 74 257 1.0 4.0 0.00 0.00 0.00 66 1014.0
20200705131850 74 262 1.0 4.0 0.00 0.00 0.00 67 1014.0
20200705131407 73 134 1.0 3.0 0.00 0.00 0.00 71 1014.0
20200705130859 73 289 1.0 3.0 0.00 0.00 0.00 68 1014.1
20200705130357 73 248 2.0 3.0 0.00 0.00 0.00 68 1014.2
20200705125900 73 236 0.0 2.0 0.00 0.00 0.00 70 1014.2
20200705125351 72 280 0.0 2.0 0.00 0.00 0.00 72 1014.1
20200705124843 72 100 0.0 1.0 0.00 0.00 0.00 73 1014.2
20200705124359 72 100 0.0 3.0 0.00 0.00 0.00 73 1014.1
20200705123912 71 100 0.0 3.0 0.00 0.00 0.00 76 1014.2
20200705123346 71 100 0.0 2.0 0.00 0.00 0.00 77 1014.3
20200705122907 70 100 1.0 2.0 0.00 0.00 0.00 78 1014.2
20200705122403 70 100 1.0 2.0 0.00 0.00 0.00 76 1014.2
20200705121852 69 100 0.0 0.0 0.00 0.00 0.00 79 1014.2
20200705121405 69 100 0.0 0.0 0.00 0.00 0.00 80 1014.2
20200705120859 68 100 0.0 0.0 0.00 0.00 0.00 82 1014.3
20200705120420 67 100 0.0 0.0 0.00 0.00 0.00 85 1014.3
20200705115856 66 100 0.0 0.0 0.00 0.00 0.00 87 1014.3
20200705115352 65 100 0.0 0.0 0.00 0.00 0.00 88 1014.4
20200705114900 64 100 0.0 0.0 0.00 0.00 0.00 89 1014.4
20200705114411 64 100 0.0 0.0 0.00 0.00 0.00 90 1014.4
20200705113902 63 100 0.0 0.0 0.00 0.00 0.00 90 1014.4
20200705113401 63 100 0.0 0.0 0.00 0.00 0.00 93 1014.3
20200705112846 62 100 0.0 0.0 0.00 0.00 0.00 95 1014.4
20200705112402 61 100 0.0 0.0 0.00 0.00 0.00 97 1014.4
20200705111856 60 100 0.0 0.0 0.00 0.00 0.00 97 1014.5
20200705111352 59 100 0.0 0.0 0.00 0.00 0.00 98 1014.3
20200705110850 58 100 0.0 0.0 0.00 0.00 0.00 98 1014.2
20200705110350 58 100 0.0 0.0 0.00 0.00 0.00 98 1014.3
20200705105905 57 100 0.0 0.0 0.00 0.00 0.00 98 1014.4
20200705105402 57 100 0.0 0.0 0.00 0.00 0.00 97 1014.5
20200705104856 56 100 0.0 0.0 0.00 0.00 0.00 97 1014.5
20200705104351 56 100 0.0 0.0 0.00 0.00 0.00 97 1014.4
20200705103846 56 100 0.0 0.0 0.00 0.00 0.00 97 1014.2
20200705103403 56 100 0.0 0.0 0.00 0.00 0.00 97 1014.2
20200705102844 56 100 0.0 0.0 0.00 0.00 0.00 97 1014.3
20200705102400 56 100 0.0 0.0 0.00 0.00 0.00 97 1014.3
20200705101853 56 103 0.0 0.0 0.00 0.00 0.00 97 1014.2
20200705101355 56 103 0.0 0.0 0.00 0.00 0.00 97 1014.2
20200705100846 56 103 0.0 0.0 0.00 0.00 0.00 97 1014.0
20200705100346 56 103 0.0 0.0 0.00 0.00 0.00 97 1014.0
20200705095909 56 103 0.0 0.0 0.00 0.00 0.00 97 1013.9
20200705095348 56 103 0.0 0.0 0.00 0.00 0.00 96 1013.9
20200705094848 56 103 0.0 0.0 0.00 0.00 0.00 96 1013.9
20200705094404 56 103 0.0 0.0 0.00 0.00 0.00 96 1013.9
20200705093858 56 103 0.0 0.0 0.00 0.00 0.00 96 1013.9
20200705093345 56 103 0.0 0.0 0.00 0.00 0.00 96 1013.9
20200705092901 56 103 0.0 0.0 0.00 0.00 0.00 96 1013.8
20200705092402 56 103 0.0 0.0 0.00 0.00 0.00 96 1013.7
20200705091855 56 103 0.0 0.0 0.00 0.00 0.00 96 1013.7
20200705091347 56 103 0.0 0.0 0.00 0.00 0.00 96 1013.7
20200705090844 56 103 0.0 0.0 0.00 0.00 0.00 96 1013.6
20200705090400 56 103 0.0 0.0 0.00 0.00 0.00 95 1013.6
20200705085857 56 103 0.0 0.0 0.00 0.00 0.00 95 1013.6
20200705085401 57 103 0.0 0.0 0.00 0.00 0.00 95 1013.5
20200705084849 57 103 0.0 0.0 0.00 0.00 0.00 95 1013.5
20200705084411 57 103 0.0 0.0 0.00 0.00 0.00 95 1013.4
20200705083845 57 103 0.0 0.0 0.00 0.00 0.00 95 1013.5
20200705083406 57 103 0.0 0.0 0.00 0.00 0.00 95 1013.4
20200705082904 57 103 0.0 0.0 0.00 0.00 0.00 95 1013.3
20200705082343 57 103 0.0 0.0 0.00 0.00 0.00 95 1013.2
20200705081850 57 103 0.0 0.0 0.00 0.00 0.00 95 1013.1
20200705081343 57 103 0.0 0.0 0.00 0.00 0.00 95 1013.0
20200705080903 57 103 0.0 0.0 0.00 0.00 0.00 94 1013.1
20200705080356 57 103 0.0 0.0 0.00 0.00 0.00 94 1013.1
20200705075856 57 103 0.0 0.0 0.00 0.00 0.00 94 1013.1
20200705075354 58 103 0.0 0.0 0.00 0.00 0.00 95 1013.2
20200705074900 58 103 0.0 0.0 0.00 0.00 0.00 94 1013.3
20200705074351 58 103 0.0 0.0 0.00 0.00 0.00 94 1013.3
20200705073843 58 103 0.0 0.0 0.00 0.00 0.00 94 1013.2
20200705073403 58 103 0.0 0.0 0.00 0.00 0.00 94 1013.1
20200705072901 58 103 0.0 0.0 0.00 0.00 0.00 94 1013.1
20200705072356 58 103 0.0 0.0 0.00 0.00 0.00 93 1013.1
20200705071854 58 103 0.0 0.0 0.00 0.00 0.00 93 1013.0
20200705071354 58 103 0.0 0.0 0.00 0.00 0.00 93 1013.1
20200705070820 59 103 0.0 0.0 0.00 0.00 0.00 94 1013.1
20200705065902 59 103 0.0 0.0 0.00 0.00 0.00 93 1013.2
20200705065402 59 103 0.0 0.0 0.00 0.00 0.00 92 1013.2
20200705064847 59 103 0.0 0.0 0.00 0.00 0.00 92 1013.2
20200705064344 59 103 0.0 0.0 0.00 0.00 0.00 92 1013.2
20200705063906 59 103 0.0 0.0 0.00 0.00 0.00 91 1013.2
20200705063359 59 103 0.0 0.0 0.00 0.00 0.00 91 1013.2
20200705062856 59 103 0.0 0.0 0.00 0.00 0.00 91 1013.2
20200705062351 59 103 0.0 0.0 0.00 0.00 0.00 90 1013.2
20200705061853 60 103 0.0 0.0 0.00 0.00 0.00 90 1013.2
20200705061348 60 103 0.0 0.0 0.00 0.00 0.00 90 1013.2
20200705060904 60 103 0.0 0.0 0.00 0.00 0.00 89 1013.2
20200705060400 60 103 0.0 0.0 0.00 0.00 0.00 89 1013.3
20200705055858 60 103 0.0 0.0 0.00 0.00 0.00 89 1013.3
20200705055358 61 103 0.0 0.0 0.00 0.00 0.00 89 1013.3
20200705054850 61 103 0.0 0.0 0.00 0.00 0.00 89 1013.3
20200705054356 61 103 0.0 0.0 0.00 0.00 0.00 89 1013.3
20200705053856 61 103 0.0 0.0 0.00 0.00 0.00 89 1013.3
20200705053400 61 103 0.0 0.0 0.00 0.00 0.00 89 1013.4
20200705052854 62 103 0.0 0.0 0.00 0.00 0.00 89 1013.3
20200705052351 62 103 0.0 0.0 0.00 0.00 0.00 88 1013.3
20200705051847 62 103 0.0 0.0 0.00 0.00 0.00 88 1013.3
20200705051347 62 103 0.0 0.0 0.00 0.00 0.00 88 1013.2
20200705050846 62 103 0.0 0.0 0.00 0.00 0.00 88 1013.3
20200705050400 62 103 0.0 0.0 0.00 0.00 0.00 88 1013.2
20200705045840 62 103 0.0 0.0 0.00 0.00 0.00 87 1013.3
20200705045355 63 103 0.0 0.0 0.00 0.00 0.00 87 1013.3
20200705044849 63 103 0.0 0.0 0.00 0.00 0.00 85 1013.3
20200705044355 63 103 0.0 0.0 0.00 0.00 0.00 84 1013.3
20200705043840 63 103 0.0 0.0 0.00 0.00 0.00 85 1013.3
20200705043357 63 103 0.0 0.0 0.00 0.00 0.00 85 1013.4
20200705042845 63 103 0.0 0.0 0.00 0.00 0.00 86 1013.4
20200705042338 63 103 0.0 0.0 0.00 0.00 0.00 86 1013.4
20200705041857 63 103 0.0 0.0 0.00 0.00 0.00 85 1013.3
20200705041334 63 103 0.0 0.0 0.00 0.00 0.00 85 1013.3
20200705040846 63 103 0.0 0.0 0.00 0.00 0.00 86 1013.4
20200705040337 63 103 0.0 0.0 0.00 0.00 0.00 86 1013.4
20200705035836 64 103 0.0 0.0 0.00 0.00 0.00 86 1013.4
20200705035333 64 103 0.0 0.0 0.00 0.00 0.00 85 1013.4
20200705034838 64 103 0.0 0.0 0.00 0.00 0.00 85 1013.4
20200705034359 64 103 0.0 0.0 0.00 0.00 0.00 85 1013.5
20200705033834 64 103 0.0 0.0 0.00 0.00 0.00 85 1013.3
20200705032852 64 103 0.0 0.0 0.00 0.00 0.00 84 1013.3
20200705032341 64 103 0.0 0.0 0.00 0.00 0.00 84 1013.2
20200705031846 64 103 0.0 0.0 0.00 0.00 0.00 83 1013.2
20200705031404 64 103 0.0 0.0 0.00 0.00 0.00 83 1013.0
20200705030838 65 103 0.0 1.0 0.00 0.00 0.00 83 1012.9
20200705030336 65 103 0.0 1.0 0.00 0.00 0.00 82 1012.9
20200705025849 65 103 0.0 0.0 0.00 0.00 0.00 82 1012.9
20200705025342 65 103 0.0 0.0 0.00 0.00 0.00 82 1013.0
20200705024839 65 103 0.0 0.0 0.00 0.00 0.00 82 1012.9
20200705024338 65 103 0.0 0.0 0.00 0.00 0.00 81 1012.9
20200705023846 66 103 0.0 0.0 0.00 0.00 0.00 81 1012.9
20200705023342 66 103 0.0 0.0 0.00 0.00 0.00 80 1012.9
20200705022837 66 103 0.0 0.0 0.00 0.00 0.00 80 1012.9
20200705022336 66 103 0.0 0.0 0.00 0.00 0.00 79 1013.0
20200705021856 66 103 0.0 1.0 0.00 0.00 0.00 76 1012.9
20200705021355 67 103 0.0 1.0 0.00 0.00 0.00 77 1013.0
20200705020849 67 103 0.0 0.0 0.00 0.00 0.00 77 1012.9
20200705020334 67 103 0.0 0.0 0.00 0.00 0.00 76 1012.9
20200705015841 67 103 0.0 0.0 0.00 0.00 0.00 75 1012.8
20200705015341 68 103 0.0 0.0 0.00 0.00 0.00 73 1012.8
20200705014835 68 103 0.0 0.0 0.00 0.00 0.00 73 1012.7
20200705014359 68 103 0.0 0.0 0.00 0.00 0.00 71 1012.8
20200705013856 68 103 0.0 0.0 0.00 0.00 0.00 70 1012.8
20200705013343 69 103 0.0 0.0 0.00 0.00 0.00 69 1012.8
20200705012838 69 103 0.0 0.0 0.00 0.00 0.00 69 1012.8
20200705012334 69 103 0.0 0.0 0.00 0.00 0.00 68 1012.7
20200705011853 70 103 0.0 0.0 0.00 0.00 0.00 68 1012.6
20200705011347 70 103 0.0 1.0 0.00 0.00 0.00 66 1012.6
20200705010848 70 103 0.0 1.0 0.00 0.00 0.00 65 1012.6
20200705010359 71 105 0.0 1.0 0.00 0.00 0.00 64 1012.5
20200705005842 71 223 0.0 0.0 0.00 0.00 0.00 63 1012.4
20200705005355 72 223 0.0 1.0 0.00 0.00 0.00 63 1012.4
20200705004852 72 223 0.0 1.0 0.00 0.00 0.00 62 1012.4
20200705004341 73 10 0.0 0.0 0.00 0.00 0.00 61 1012.3
20200705003842 73 11 0.0 0.0 0.00 0.00 0.00 61 1012.2
20200705003350 74 11 0.0 1.0 0.00 0.00 0.00 60 1012.2
20200705002847 74 11 0.0 2.0 0.00 0.00 0.00 60 1012.3
20200705002341 74 11 0.0 2.0 0.00 0.00 0.00 60 1012.3
20200705001901 75 330 0.0 1.0 0.00 0.00 0.00 59 1012.2
20200705001352 75 330 0.0 1.0 0.00 0.00 0.00 59 1012.3
20200705000850 76 330 0.0 1.0 0.00 0.00 0.00 57 1012.2
20200705000418 76 330 0.0 1.0 0.00 0.00 0.00 56 1012.0
20200704235850 77 330 0.0 2.0 0.00 0.00 0.00 53 1012.0
20200704235402 77 330 0.0 2.0 0.00 0.00 0.00 52 1012.0
20200704234850 77 302 1.0 3.0 0.00 0.00 0.00 51 1012.0
20200704234345 78 236 1.0 3.0 0.00 0.00 0.00 50 1012.0
20200704233845 78 302 1.0 2.0 0.00 0.00 0.00 50 1012.0
20200704233343 79 315 1.0 2.0 0.00 0.00 0.00 48 1012.0
20200704232840 79 315 0.0 3.0 0.00 0.00 0.00 46 1012.0
20200704232355 79 242 1.0 3.0 0.00 0.00 0.00 45 1012.0
20200704231853 79 30 1.0 4.0 0.00 0.00 0.00 45 1012.0
20200704231353 80 313 1.0 6.0 0.00 0.00 0.00 41 1012.0
20200704230847 80 246 1.0 5.0 0.00 0.00 0.00 41 1012.0
20200704230339 81 271 1.0 4.0 0.00 0.00 0.00 40 1012.0
20200704225846 81 240 1.0 9.0 0.00 0.00 0.00 40 1012.0
20200704225337 81 5 3.0 9.0 0.00 0.00 0.00 38 1012.1
20200704224840 82 330 2.0 6.0 0.00 0.00 0.00 39 1012.1
20200704224340 83 338 3.0 6.0 0.00 0.00 0.00 39 1012.1
20200704223856 83 31 1.0 6.0 0.00 0.00 0.00 39 1012.0
20200704223344 83 5 2.0 7.0 0.00 0.00 0.00 37 1012.0
20200704222850 84 317 1.0 5.0 0.00 0.00 0.00 39 1012.0